Simultaneous Nadir Overpasses (SNOs) Predictions

Prediction of SNOs between GOES-15 and METOP-A Satellite Orbit:

Table of predicted SNOs for the next 14.0 days since TLE Epoch: 3/13/2020
Index Date Time (GOES-15) GOES-15 Lat,Lon METOP-A Lat,Lon Distance(km) Time Diff (sec)
1 03/14/2020 17:10:49 0.16,-128.35 -0.29,-126.17 247.77 80
2 03/16/2020 05:32:29 -0.19,-128.28 -0.76,-130.79 287.14 80
3 03/17/2020 05:09:11 -0.17,-128.26 0.39,-125.82 277.80 80
4 03/18/2020 17:30:42 0.20,-128.28 0.66,-130.41 242.15 80
5 03/19/2020 17:07:23 0.18,-128.26 -0.43,-125.43 322.59 80
6 03/21/2020 05:29:03 -0.21,-128.18 -0.62,-130.05 212.89 80
7 03/22/2020 05:05:44 -0.19,-128.16 0.48,-125.07 351.92 80
8 03/23/2020 17:27:16 0.22,-128.18 0.52,-129.66 168.25 80
9 03/24/2020 17:03:56 0.20,-128.16 -0.58,-124.68 396.37 80
10 03/26/2020 05:25:37 -0.23,-128.07 -0.47,-129.30 139.79 80
11 03/27/2020 05:02:17 -0.21,-128.05 0.62,-124.32 424.57 80




NCC Satellite Simultaneous Nadir Overpasses (SNOs) Prediction Service
